Weather in Mykolaivka

Ukraine / Zaporizhia Region     46°52′15″N   36°02′55″E
temp.,
°C
wind,
m/s
gust,
m/s
humid.,
%
clouds,
%
prec.,
mm/h
press.,
hPa
HPBL,
m
5 march, fri
fri523:00+4sw8148133 0.0 1015515
02:00+4sw7148317 0.0 1015536
05:00+4sw7139037 0.0 1014463
08:00+5sw6108668 0.0 1014510
11:00+7sw687698 0.0 1014609
14:00+9ssw566891 0.0 1013574
17:00+8s467763 0.0 1012203
20:00+7sw478282 0.0 1013133
6 march, sat
sat623:00+6sw5891100 0.0 1012174
02:00+5sw5109299 0.0 1012287
05:00+5wsw41091100 0.0 1011298
08:00+6nw71084100 0.0 1013607
11:00+4nnw91168100 0.0 1016958
14:00+4nnw81157100 0.0 10181300
17:00+3nnw81047100 0.0 10211420
20:000nnw5115567 0.0 1025724
7 march, sun
sun723:00−1nw48610 0.0 1026504
02:00−1wnw48600 0.0 1027385
05:00−2w48600 0.0 1027300
08:000w58490 0.0 1027577
11:00+4w710410 0.0 10261781
14:00+5w8104315 0.0 10241831
17:00+4wsw69454 0.0 1022828
20:00+1wsw6124819 0.0 1021519
8 march, mon
mon823:00+1wsw714660 0.0 1020575
02:00+1wsw815700 0.0 1019698
05:00+1wsw7157742 0.0 1018578
08:00+4wsw9137270 0.0 1018910
11:00+7wsw9115779 0.0 10171489
14:00+8wsw9115268 0.0 10161630
17:00+7wsw7115799 0.1 1015673
20:00+4wsw71265100 0.1 1016433
9 march, tue
tue923:00+3wsw51074100 0.0 1016391
02:00+2wsw468272 0.0 1015203
05:00+1wsw35868 0.0 1015153
08:00+3w57728 0.0 1015390
11:00+6wnw566060 0.0 10161072
14:00+5nw576077 0.1 10161182
17:00+4nnw564783 0.0 1017998
20:00+1nnw345844 0.0 1019154